STARLINK-1776

decayed
NORAD ID: 46682 Int'l Des: 2020-073 Owner: SPXS Country: US Constellation: starlink
LEOCIRCULAR

关于 STARLINK-1776

正在加载描述...

高度历史

Altitude vs Time

uPlot chart will show altitude changes over time

两行轨道根数

1 46682U 20073N 25037.71560852 .08473893 12276-4 92856-3 0 9996
2 46682 53.0273 199.1192 0006955 276.2720 182.8929 16.36432438238317
Epoch: Feb 6, 2025 • Age: 5153 hours

当前状态

Position data unavailable
发射日期 Oct 18, 2020
运行时间 4.8 years
衰减日期 Feb 7, 2025
类型 internet

技术详情

分类 Payload
质量 260.00 kg
干质量 248.00 kg
总质量 260.00 kg
长度 0.20 m
直径 2.80 m
跨度 9.00 m
形状 Box + pan
制造商 SPXS
平台类型 Starlink
阶段状态 Unknown Transfer Status
所有者/国家 SPXS/US

大型星座

Loading constellations...